Location: Unspecified
(0.0000°N, 0.0000°E)
Time: 15:46:39
(UTC+00:00)

Hubble Space Telescope - Pass Details

Date: 09 October 2022
Orbit: 530 x 534 km, 28.5° (Epoch: 04 December)

Event Time Altitude Azimuth Distance (km) Brightness Sun altitude
Rises 19:01:33 0° 306° (NW) 2,646 5.0 -18.5°
Reaches altitude 10° 19:03:50 10° 310° (NW) 1,759 4.0 -19.0°
Maximum altitude 19:07:50 59° 30° (NNE) 609 0.8 -20.0°
Enters shadow 19:08:09 57° 53° (NE) 622 0.7 -20.1°
